Main page
METAR-TAF:

METAR-TAF

Airports :

Bushehr Airport

Bushehr, Iran

latitude: 28-59N, longitude: 050-50E, elevation: 19 m

Current weather observation

The report was made 38 minutes ago, at 16:30 UTC
Wind 6 kt from the West
Temperature 30°C
Humidity 59%
Pressure 1011 hPa
Visibility: 7000 m
Few clouds at a height of 2500 ft, Cumulonimbus.
thunderstorm

METAR: OIBB 181630Z 28006KT 7000 TS FEW025CB 30/21 Q1011 A2986

Time: 20:38 (17:08 UTC)


TAF: missing

Weather observations and forecasts of more than 4000 airports (METAR and TAF reports).

The available stations are represented by yellow and red dots on the map.

Hover mouse over dot to see the name of the station.

Then click to see weather observations and forecasts.

To change the map : click on the green buttons with a black cross to zoom in, on the green button with a dash to zoom out, or on the green arrows for adjacent maps.


METAR-TAF: